Flag for Brazil

Past Weather in Pelotas, Rio Grande do Sul, Brazil — Yesterday and Last 2 Weeks

Now
54 °F

Clear.


Feels Like: 51 °F
Forecast: 53 / 34 °F
Wind: 8 mph from West

Location: Porto Alegre Aero-Porto

Current Time: Jul 13, 2020 at 9:53:23 pm

Latest Report: Jul 13, 2020 at 9:00 pm


Visibility: 10 mi

Pressure: 30.15 "Hg

Humidity: 82%

Dew Point: 48 °F

Location of PelotasLocation

Past Weather in Pelotas — Graph

°F

Pelotas Temperature Yesterday

Maximum temperature yesterday: 59 °F (at 11:00 am)
Minimum temperature yesterday: 55 °F (at 12:00 am)
Average temperature yesterday: 57 °F

High & Low Weather Summary for the Past Weeks

 TemperatureHumidityPressure
High68 °F (Jul 4, 4:00 pm)100% (Jun 29, 12:00 am)30.27 "Hg (Jun 29, 12:00 am)
Low39 °F (Jul 3, 7:00 am)40% (Jul 4, 4:00 pm)29.47 "Hg (Jun 30, 4:00 pm)
Average55 °F90%29.97 "Hg
* Reported Jun 28 8:00 pm — Jul 13 8:00 pm, Pelotas. Weather by CustomWeather, © 2020

Note: Actual official high and low records may vary slightly from our data, if they occured in-between our weather recording intervals... More about our weather records

Pelotas Weather History for the Previous 24 Hours

Scroll right to see more
 ConditionsComfort  
Time TempWeatherWind HumidityBarometerVisibility
8:00 pm
Mon, Jul 13
54 °FClear.7 mph82%30.12 "Hg10 mi
7:00 pm57 °FClear.6 mph72%30.09 "Hg10 mi
6:00 pm57 °FClear.3 mph67%30.09 "Hg10 mi
5:00 pm59 °FSunny.7 mph63%30.07 "Hg10 mi
4:00 pm61 °FPassing clouds.7 mph55%30.07 "HgN/A
3:00 pm61 °FSunny.6 mph55%30.07 "Hg10 mi
2:00 pm61 °FSunny.3 mph52%30.07 "Hg10 mi
1:00 pm59 °FPassing clouds.6 mph48%30.07 "HgN/A
12:00 pm59 °FPassing clouds.6 mph45%30.09 "HgN/A
11:00 am57 °FPassing clouds.7 mph44%30.09 "HgN/A
10:00 am55 °FPassing clouds.7 mph59%30.09 "HgN/A
9:00 am52 °FFog.1 mph100%30.07 "Hg3 mi
8:26 am52 °FCool.2 mph100%30.07 "Hg2 mi
8:00 am50 °FFog.2 mph100%30.04 "Hg1 mi
7:13 am52 °FFog.2 mph100%30.04 "Hg1 mi
7:00 am50 °FRain. Overcast.1 mph100%30.04 "Hg1 mi
6:00 am54 °FFog.3 mph100%30.01 "Hg2 mi
5:00 am54 °FFog.5 mph100%29.98 "Hg2 mi
4:33 am52 °FFog.1 mph100%29.98 "Hg1 mi
4:00 am54 °FFog.5 mph100%29.98 "Hg2 mi
3:37 am55 °FFog.2 mph100%29.98 "Hg1 mi
3:00 am55 °FFog.2 mph100%29.98 "Hg0 mi
2:05 am54 °FFog.2 mph100%29.98 "Hg1 mi
2:00 am54 °FFog.2 mph100%29.98 "Hg1 mi
1:00 am55 °FFog.2 mph100%29.98 "Hg1 mi
12:00 am55 °FFog.1 mph100%29.98 "Hg2 mi
11:00 pm
Sun, Jul 12
55 °FFog.5 mph100%29.95 "Hg2 mi
10:00 pm57 °FFog.2 mph100%29.98 "Hg2 mi
9:00 pm57 °FFog.2 mph100%29.95 "Hg2 mi
Weather by CustomWeather, © 2020

See weather overview